Location: Rumah Sambob
(2.9167°N, 113.9167°E)
Time: 12:08:14
(UTC+00:00)

NOSS 3-1 (A) - Pass Details

Date: 06 June 2020
Orbit: 755 x 1458 km, 63.4° (Epoch: 16 June)

Event Time Altitude Azimuth Distance (km) Brightness Sun altitude
Rises 20:08:19 0° 340° (NNW) 4,387 7.0 -29.4°
Reaches altitude 10° 20:11:08 10° 342° (NNW) 3,472 6.5 -28.8°
Maximum altitude 20:19:53 77° 68° (ENE) 1,490 4.4 -26.9°
Drops below altitude 10° 20:28:47 10° 152° (SSE) 3,531 6.4 -24.9°
Sets 20:31:40 0° 154° (SSE) 4,463 6.9 -24.3°
